Zurück zum Katalog

COSMOS 2190

AktivMilitärLEO
NORAD 21979·PAYLOAD·🇷🇺 Russia

Gestartet Jun 3, 1992 von Plesetsk Cosmodrome

Loading…

Nächste Überflüge (nächste 24 Stunden)

TLE

AktuellSource: Space-Track

Epoche: Sep 14, 2026, 14:21 UTC

1 21979U 92030D   26257.59805824 -.00000017  00000-0 -64281-5 0  9991
2 21979  74.0000  97.2153 0031854 330.9375  52.6885 12.52287258567148

Verfolge COSMOS 2190 in Echtzeit mit AllMySat

Download on the App Store